sat.trackr.live / text

‹ back to catalog

STARLINK-30207

NORAD 57407 · 2023-102D

PAYLOAD ACTIVE UNKNOWN

§ Identity

Operator
Country
US
Launch date
2023-07-20
Launch site
AFWTR
Launch vehicle
Mass (kg)
RCS (m²)

Purposes: comms

External: N2YO · Heavens-Above · Gunter

§ Orbital elements

Epoch: 2026-05-25T02:15:22.127040Z

Period
94.27 min
Inclination
43.0043°
Eccentricity
0.0001780
Mean motion
15.27576998 rev/d
Perigee alt
481.8 km
Apogee alt
484.3 km
Semi-major
6,861.2 km
B*
2.5470e-5
RAAN
162.5754°
Arg perigee
278.6047°
Mean anomaly
81.4603°
Rev number
15,810

§ Raw data

STARLINK-302071 57407U 23102D   26145.09400610  .00000439  00000+0  25470-4 0  99962 57407  43.0043 162.5754 0001780 278.6047  81.4603 15.27576998158105

JSON: /api/v1/satellites/57407 · /tle

For live sub-satellite position, see the globe view (requires WebGL).

§ Visibility from observer

Set your observer location to see the next 7 days of passes ≥ 10°. The values pass through the URL so the page stays shareable.

No JS? Fill the form by hand. The geolocation button needs JavaScript.